Theta_e
294 294 294 295 296 296 296 296 297 297 297 298 297 298 298 299 300 299 298 298 298 297 297 297 297 297 297 296 296 295 294 294 293 294 293 292 292 292 292 294 294 294
293 294 293 294 294 295 295 296 296 296 296 297 297 297 298 299 300 299 298 297 297 296 296 296 296 296 295 295 295 294 293 293 293 294 292 292 292 292 292 292 293 294
292 292 292 292 292 293 294 294 295 295 295 296 296 296 297 298 298 298 298 296 296 295 295 295 295 295 294 294 294 294 293 292 292 292 292 292 292 291 291 292 292 292
292 292 291 292 292 292 293 293 293 293 294 294 294 296 296 297 297 296 296 295 295 295 295 295 294 294 294 294 293 293 293 292 292 292 291 291 291 291 290 291 291 291
290 290 290 291 291 292 292 292 292 292 292 293 293 294 294 295 295 295 295 295 294 294 294 294 294 294 293 293 293 292 292 291 292 292 291 290 290 290 290 290 289 289
290 290 290 289 289 290 290 290 291 291 291 291 292 292 293 293 293 293 293 293 293 293 293 293 293 293 293 292 292 292 291 291 291 291 290 289 290 290 290 289 289 288
288 289 288 289 288 289 288 289 290 290 291 291 291 291 292 291 292 292 292 293 293 292 292 292 292 292 292 292 291 291 291 290 290 290 289 289 289 289 289 289 288 288
287 288 288 287 287 287 286 288 288 289 289 290 290 290 291 291 291 291 291 292 292 292 292 291 291 291 291 291 290 290 289 290 290 289 288 288 288 288 288 289 288 287
286 286 286 285 285 286 285 286 287 288 289 288 289 289 290 290 290 290 290 290 290 291 291 291 291 291 291 290 290 289 289 289 289 289 288 288 287 288 288 288 287 287
285 286 285 285 284 285 285 286 286 286 287 288 288 288 288 289 289 289 289 289 289 289 290 290 290 290 290 290 289 289 289 288 288 288 288 288 287 287 288 287 287 286
286 286 285 285 285 285 285 285 285 286 286 286 286 286 287 287 287 288 288 288 288 288 288 289 289 289 289 289 289 289 288 288 288 288 288 288 288 288 288 287 287 286
285 286 286 286 285 285 285 285 285 285 286 286 286 286 287 287 287 287 287 287 287 287 287 288 288 289 289 289 289 289 288 288 288 287 287 287 287 287 288 288 287 287
284 285 286 286 286 285 285 285 285 285 285 286 286 285 285 286 286 286 287 286 286 287 287 287 287 288 288 288 288 288 288 287 287 287 287 287 287 287 287 287 287 287
284 285 286 286 286 286 285 284 284 284 285 286 286 286 286 285 285 285 286 287 287 286 287 287 287 287 287 288 288 287 287 287 287 286 286 286 286 286 286 286 286 286
284 284 286 286 285 285 284 284 283 283 284 285 285 285 286 286 286 286 285 285 286 286 287 287 287 287 287 287 287 287 287 286 286 286 286 286 285 285 285 286 286 286
283 283 284 284 284 283 283 282 282 282 283 283 284 285 285 285 285 285 285 285 285 285 286 287 287 287 287 288 289 287 286 286 286 286 285 285 285 285 285 285 285 286
282 282 283 283 283 282 281 281 280 280 280 282 283 284 284 285 284 284 284 285 285 285 285 286 286 287 288 290 290 290 288 287 286 286 285 285 285 284 284 284 284 285
281 281 281 282 282 281 280 280 279 279 279 280 282 283 284 284 283 284 284 284 284 284 284 285 286 287 289 289 290 290 290 287 286 286 286 286 285 285 285 285 284 284
281 280 280 280 281 280 280 279 278 278 278 278 279 281 283 283 283 283 283 284 284 284 284 284 285 287 288 289 289 290 290 289 287 286 286 285 285 285 285 285 285 284
280 280 279 280 280 279 279 278 277 277 277 277 278 279 281 282 282 282 282 282 283 283 283 283 284 286 288 288 288 289 289 289 287 286 286 286 285 285 285 285 285 284
279 279 279 279 279 278 278 277 276 276 276 276 276 277 278 279 280 280 281 281 281 282 282 282 283 286 287 287 287 288 289 289 287 287 286 286 286 286 285 285 285 285
279 278 278 278 278 277 276 275 275 275 274 275 275 276 276 278 278 279 279 280 280 280 280 280 282 284 285 287 287 287 288 287 286 286 286 286 286 286 286 286 285 285
278 277 277 277 277 276 275 274 274 273 274 274 273 273 274 275 276 277 278 278 278 279 279 280 281 283 285 286 286 287 287 285 285 285 285 285 285 286 286 286 286 286
277 276 275 275 275 274 273 273 273 273 273 273 272 272 272 273 275 276 277 277 277 278 279 278 279 281 283 284 285 286 286 284 284 284 284 284 285 286 286 286 286 285
275 275 274 273 273 273 272 272 271 271 272 272 272 272 272 273 274 275 275 275 275 275 277 277 277 279 282 283 284 284 284 283 284 283 283 283 284 284 286 286 286 286
273 272 272 272 271 271 271 271 271 271 271 271 271 271 271 271 272 272 272 272 273 273 273 274 274 275 278 281 283 283 284 283 283 283 282 282 283 284 284 285 286 286
Wind_Speed
11 9 9 8 6 6 6 7 7 7 7 7 7 7 7 6 5 5 6 7 7 8 7 8 8 8 8 9 9 9 9 10 10 10 12 12 13 14 14 14 11 10
13 11 9 9 7 7 8 7 7 7 7 7 7 7 7 7 5 4 4 5 6 7 7 7 8 8 7 8 9 10 10 10 11 8 11 13 13 13 15 15 14 12
13 12 12 11 9 10 10 9 8 7 7 7 7 7 6 6 5 3 3 4 5 6 7 7 7 8 8 8 9 9 11 11 11 10 11 13 12 13 13 13 13 15
12 12 11 11 10 10 9 8 8 7 7 6 6 6 6 5 5 5 5 6 6 6 6 7 8 8 8 9 9 9 10 11 11 9 11 11 11 12 12 12 13 13
10 10 10 10 9 10 9 8 8 7 6 7 6 6 5 5 5 5 5 5 5 6 7 7 8 8 8 8 9 10 10 9 10 10 10 12 12 11 12 11 13 15
8 8 9 9 10 9 9 10 9 9 8 7 7 6 5 5 5 6 6 6 6 6 7 7 7 8 8 9 8 10 9 9 10 11 12 13 12 11 10 11 14 14
8 7 9 8 8 9 9 9 10 9 9 8 8 7 7 6 6 6 6 6 6 6 6 7 7 8 7 8 9 9 10 11 10 11 13 12 12 13 12 12 14 14
8 6 6 6 7 7 8 8 8 8 8 9 8 8 8 8 8 7 6 6 6 7 7 7 8 8 8 8 9 9 10 8 9 11 12 13 13 14 13 11 12 14
4 5 6 6 6 5 7 8 7 7 8 8 9 9 9 9 8 8 8 7 7 7 7 7 7 8 8 8 9 10 11 10 10 11 12 13 13 15 14 12 13 15
6 6 6 6 7 7 8 9 7 6 6 7 8 8 9 9 9 9 8 7 7 7 8 7 8 9 9 8 10 10 10 11 10 12 13 13 13 14 13 13 14 15
8 6 6 7 7 7 7 8 8 9 9 9 8 8 8 8 8 8 8 8 7 8 8 9 9 9 9 10 10 9 10 11 11 11 12 14 15 15 14 14 14 16
8 8 8 7 6 6 7 8 8 7 7 8 8 9 9 8 7 8 7 8 8 7 8 9 9 9 10 10 10 10 10 10 11 11 12 12 13 14 14 14 14 16
9 9 8 8 8 8 7 7 7 8 9 9 8 7 8 7 8 8 7 6 8 8 8 8 8 9 10 10 10 11 11 11 11 12 12 12 12 12 12 14 15 15
9 9 9 8 8 8 9 9 9 9 8 7 7 9 9 9 9 9 8 7 7 7 8 7 8 8 9 9 10 10 11 12 12 12 13 13 14 13 13 13 15 16
8 8 7 7 7 8 9 9 9 10 10 9 8 8 7 8 8 8 9 10 8 8 8 7 7 7 7 8 9 10 9 11 12 12 13 14 14 14 14 15 15 14
10 9 8 7 7 6 8 9 10 10 10 10 10 10 9 9 9 9 9 9 10 9 9 7 6 6 9 15 14 11 11 10 10 11 11 12 13 14 14 15 17 16
9 9 9 10 8 7 5 4 8 8 10 11 11 10 11 11 9 9 9 9 10 9 9 8 7 7 12 13 14 18 14 12 11 11 11 12 13 14 14 14 14 15
9 9 10 10 8 8 7 7 7 8 10 11 10 11 12 11 12 12 10 9 9 10 11 9 8 10 13 14 16 17 16 12 10 10 11 12 13 14 14 14 15 14
9 8 9 9 8 7 7 9 10 11 11 10 13 12 10 11 15 13 12 12 11 10 10 10 11 12 13 15 16 16 17 16 10 11 11 12 14 14 14 14 14 14
10 8 9 10 9 8 6 7 10 11 12 10 10 12 11 12 12 13 14 13 11 11 12 11 11 12 16 16 17 17 18 16 11 12 12 13 14 14 14 15 15 14
10 8 10 9 9 9 9 10 10 10 12 11 10 12 13 13 13 13 13 13 13 12 12 14 12 16 16 18 19 19 19 16 10 11 11 12 14 15 15 16 16 15
9 9 10 11 10 9 10 11 10 12 14 11 10 11 12 14 14 13 14 15 14 14 14 15 14 18 18 18 17 18 20 11 9 11 11 12 14 15 15 14 15 15
11 10 11 11 11 13 13 12 14 16 14 10 12 12 13 14 14 15 13 14 16 15 15 15 14 15 18 18 17 19 15 9 10 10 11 12 14 14 14 15 15 16
11 11 12 12 12 12 14 14 14 12 14 11 12 13 15 16 14 15 14 14 15 16 15 15 16 17 20 20 20 19 16 11 10 11 12 13 13 13 13 13 16 23
10 11 12 13 15 15 13 15 14 13 13 13 14 14 15 14 14 15 15 15 15 16 21 20 18 20 24 24 24 22 17 11 11 11 12 13 12 13 13 13 14 16
11 14 15 14 15 15 15 15 14 15 16 14 13 14 15 14 14 15 17 16 15 15 16 17 19 20 23 29 26 26 24 15 11 11 12 13 13 13 13 13 14 14
Wind_Direction
22 14 5 358 353 348 336 332 329 323 317 314 308 305 299 297 271 232 221 224 227 232 231 233 230 225 222 221 218 221 221 218 220 219 223 222 224 220 221 219 218 213
22 18 11 4 357 355 344 335 328 320 312 308 307 307 303 300 292 247 225 229 231 232 234 232 231 229 223 222 217 223 227 224 224 217 222 223 227 223 224 221 220 221
20 20 17 10 1 355 350 345 340 331 322 317 310 301 300 300 291 252 237 231 237 235 233 233 232 228 226 228 229 229 229 227 229 221 221 224 223 224 226 222 225 220
13 12 10 7 4 359 354 350 345 338 329 321 316 309 300 293 278 257 244 225 231 236 240 235 234 234 230 228 226 229 228 230 231 223 225 229 225 226 227 224 227 226
11 10 7 2 354 356 357 356 350 341 331 319 311 309 306 300 283 274 264 242 225 232 236 238 237 236 233 231 223 228 225 229 226 227 230 229 227 223 226 224 227 228
9 9 5 3 1 0 356 358 356 353 347 337 331 320 312 305 296 287 283 276 258 240 236 237 237 235 234 232 228 229 228 226 222 219 229 233 232 225 227 225 229 229
7 7 4 2 359 2 360 356 353 351 351 342 331 339 335 325 313 306 300 285 272 256 240 241 242 239 232 234 234 234 231 230 229 223 225 230 231 231 226 228 230 232
11 11 4 356 0 353 355 349 350 353 347 343 346 340 342 335 331 320 310 306 291 270 257 244 242 242 239 235 234 238 237 230 232 232 232 231 227 231 227 225 229 232
2 2 360 3 358 353 354 346 340 340 347 348 349 346 347 344 332 325 317 311 304 296 279 266 256 247 242 240 239 237 239 236 233 232 234 236 233 232 227 224 227 232
357 350 355 357 357 350 344 346 343 343 339 348 352 346 345 342 337 331 320 309 305 300 293 284 274 264 256 246 244 244 243 242 239 235 234 235 237 237 233 228 229 233
341 345 356 355 346 341 340 338 339 341 345 349 350 347 343 337 332 331 328 321 310 303 299 290 281 275 268 260 253 248 246 246 244 242 240 240 240 240 236 232 234 235
340 336 334 340 345 344 336 333 334 336 334 335 345 340 336 337 331 329 326 321 313 306 299 294 289 284 276 270 265 259 252 249 250 248 248 247 244 241 238 235 238 239
336 333 329 329 334 335 333 331 332 334 333 329 329 329 328 326 327 321 315 309 305 304 299 294 293 288 283 276 272 267 260 257 256 253 251 250 250 248 242 240 239 240
330 329 327 325 329 330 330 331 331 328 323 318 320 318 319 321 323 320 314 307 298 297 293 293 288 286 280 276 274 267 263 262 258 256 255 253 253 251 246 241 239 239
325 321 315 321 325 324 322 324 326 324 319 314 310 304 298 296 300 305 310 310 301 292 292 289 286 280 280 276 278 272 265 263 261 257 255 258 257 254 248 246 245 243
321 319 319 320 317 317 322 322 322 318 314 310 303 298 296 298 295 292 293 297 301 301 295 289 280 273 267 270 266 266 269 266 263 260 258 257 257 258 256 248 246 246
316 317 319 318 315 313 306 303 306 308 309 308 306 301 298 293 281 278 282 285 292 292 290 286 278 270 265 265 264 264 264 264 264 264 259 258 257 256 256 253 249 245
312 313 311 307 311 309 310 312 309 311 310 307 302 298 298 296 292 285 275 270 278 281 284 281 277 270 272 273 273 267 264 263 261 261 260 258 258 255 255 253 251 248
304 306 306 303 298 298 302 305 306 306 303 301 302 300 293 291 291 290 287 282 273 262 265 273 280 278 272 276 277 272 263 261 263 258 255 256 256 255 255 254 251 249
296 294 294 296 298 301 297 297 301 300 303 305 299 300 294 288 285 285 287 288 282 282 279 273 265 264 271 272 274 273 269 261 254 257 256 255 254 252 252 254 252 253
288 288 288 288 289 291 295 294 296 294 298 299 299 299 298 294 291 288 283 282 281 282 284 283 276 264 259 262 268 271 269 268 258 256 254 253 254 253 251 251 251 253
291 290 288 289 284 282 287 288 291 293 296 294 294 292 289 290 285 281 284 285 282 280 280 280 281 275 266 254 256 265 271 269 260 257 255 253 252 252 252 250 250 247
290 290 293 292 291 287 285 287 291 290 289 290 290 288 285 285 285 283 283 283 285 283 278 277 277 274 272 264 261 260 258 261 263 261 256 254 252 251 249 250 249 247
299 298 294 291 290 286 289 293 294 291 288 284 278 280 282 285 283 279 278 279 280 280 280 283 281 276 270 264 261 260 256 255 254 255 258 259 259 252 250 248 245 243
298 295 293 294 292 290 290 290 289 288 284 285 284 279 277 279 275 273 273 274 274 275 282 282 280 279 276 270 265 258 251 249 251 250 250 250 255 257 251 248 249 243
298 296 293 293 292 293 292 289 287 287 281 277 274 277 280 277 274 272 272 273 271 274 276 279 281 280 277 273 265 260 251 245 246 247 248 250 246 249 252 249 248 247